Regional Weather Roundup
Issued by NWS Kansas City/Pleasant Hill, MO

Home | Current Version | Previous Version | Text Only | Print | Product List | Glossary On
Versions: 1 2 3 4 5 6 7 8 9 10 11 12 13 14 15 16 17 18 19 20 21 22 23 24 25 26 27 28 29 30 31 32 33 34 35 36 37 38 39 40 41 42 43 44 45 46 47 48 49 50
000
ASUS43 KEAX 280910
RWREAX

WEATHER ROUNDUP FOR EASTERN KANSAS AND NORTHWEST MISSOURI
NATIONAL WEATHER SERVICE KANSAS CITY/PLEASANT HILL MO
400 AM CDT TUE JUL 28 2015

KSZ040-057-103>105-MOZ028-029-037-043-281000-
...KANSAS CITY METROPOLITAN AREA...

CITY           SKY/WX    TMP DP  RH WIND       PRES   REMARKS
K.C. INTL      CLEAR     76  73  91 SE6       29.88S
K.C. DOWNTOWN  CLEAR     79  75  87 E3        29.86F
LEES SUMMIT    CLEAR     79  74  84 SE3       29.89F
OLATHE - IXD   CLEAR     78  74  87 S8        29.89S
OLATHE - OJC   CLEAR     78  73  84 S6        29.88F
LAWRENCE       CLEAR     77  73  87 SE7       29.86S

$$

MOZ001>008-011>017-020>025-030>033-038>040-044>046-053-054-281000-
...NORTHERN AND CENTRAL MISSOURI...

CITY           SKY/WX    TMP DP  RH WIND       PRES   REMARKS
ST. JOSEPH     CLEAR     75  72  90 SE5       29.86F
MOSBY          SUNNY     73  72  94 CALM      29.88S
WARRENSBURG    CLEAR     77  73  88 E3        29.89S
WHITEMAN AFB   CLEAR     77  75  95 SE3       29.89S
CLINTON        CLEAR     81  77  89 CALM      29.90S
SEDALIA        CLEAR     76  73  91 S7        29.92S
WARSAW         NOT AVBL
CHILLICOTHE      N/A     75  71  87 S5        29.91S
KIRKSVILLE     MOCLDY    73  69  87 S6        29.92F

$$

MOZ041-047>049-056>058-063>065-088>090-097-281000-
...EASTERN AND SOUTHERN MISSOURI...

CITY           SKY/WX    TMP DP  RH WIND       PRES   REMARKS
ST. LOUIS INTL PTCLDY    77  70  79 CALM      29.94S
SPIRIT OF STL  MOCLDY    74  73  97 CALM      29.92S
COLUMBIA       PTCLDY    73  71  93 SE6       29.93S
JEFFERSON CITY PTCLDY    74  72  93 SE5       29.91S
ROLLA          CLEAR     75  73  93 SE9       29.93F
OSAGE BEACH    CLEAR     77  72  83 SE3       29.93S
SPRINGFIELD    CLEAR     79  73  82 S8        29.93F
BRANSON        CLEAR     79  70  73 CALM      29.96F
JOPLIN         CLEAR     80  73  79 S10       29.91F
WEST PLAINS    CLEAR     77  72  84 CALM      29.97S

$$

IAZ060-094-KSZ022-034>040-054-083-096-NEZ052-066-093-281000-
...KANSAS...SOUTHEAST NEBRASKA AND IOWA...

CITY           SKY/WX    TMP DP  RH WIND       PRES   REMARKS
TOPEKA         CLEAR     80  74  81 VRB5      29.85S
MANHATTAN      CLEAR     81  72  74 SW9       29.83S
EMPORIA        CLEAR     77  73  87 S13       29.86F
CHANUTE        CLEAR     79  76  90 S8        29.88S
WICHITA        CLEAR     79  70  74 S10       29.86F
OMAHA          PTCLDY    76  72  87 SE16      29.79F
LINCOLN        CLEAR     81  71  71 S13       29.77F
FALLS CITY     CLEAR     75  73  93 SE8       29.82F
LAMONI         CLEAR     73  69  87 S8        29.89S
DES MOINES     PTCLDY    74  70  87 SE6       29.87S

$$




USA.gov is the U.S. government's official web portal to all federal, state and local government web resources and services.